Weather History for KGPI - December, 2011

Change the Weather History Date:

Wednesday, December 7, 2011

  Actual Average Record
Temperature  
Mean Temperature 22 °F 24 °F  
Max Temperature 34 °F 31 °F 47 °F (1918)
Min Temperature 10 °F 17 °F -19 °F (2005)
Degree Days  
Heating Degree Days 43 41  
Month to date heating degree days 283 280  
Since 1 July heating degree days 2335 2484  
Cooling Degree Days 0 0  
Month to date cooling degree days 0 0  
Year to date cooling degree days 97 147  
Moisture  
Dew Point 15 °F    
Average Humidity 78    
Maximum Humidity 92    
Minimum Humidity 64    
Precipitation  
Precipitation 0.00 in 0.04 in 0.38 in (1958)
Month to date precipitation 0.03 0.34  
Year to date precipitation 15.46 15.77  
Snow  
Snow 0.00 in - - ()
Month to date snowfall 0.3  
Year to date snowfall 29.5  
Since 1 July snowfall 2.5  
Snow Depth 0.00 in    
Sea Level Pressure  
Sea Level Pressure 30.35 in    
Wind  
Wind Speed 0 mph (North)    
Max Wind Speed 23 mph    
Max Gust Speed -    
Visibility 10 miles    
Events      
T = Trace of Precipitation, MM = Missing Value Source: NWS Daily Summary

Daily Weather History Graph

Daily Weather History Graph

Search for Another Location

Airport or City:

Trip Planner

Search our weather history database for the weather conditions in past years. The results will help you decide how hot, cold, wet, or windy it might be!

Date:

Astronomy

Dec. 07, 2011 Rise Set
Actual Time 8:13 AM MST 4:42 PM MST
Civil Twilight 7:37 AM MST 5:19 PM MST
Nautical Twilight 6:58 AM MST 5:58 PM MST
Astronomical Twilight 6:20 AM MST 6:36 PM MST
Moon 2:50 PM MST (12/7) 5:27 AM MST (12/7)
Length of Visible Light 9h 41m
Length of Day
8h 29m
Waxing Gibbous, 93% of the Moon is Illuminated
Dec 7
Waxing Gibbous
Dec 10
Full
Dec 17
Last Quarter
Dec 24
New
Dec 31
First Quarter

Hourly Weather History & Observations

Time (MST) Temp. Dew Point Humidity Pressure Visibility Wind Dir Wind Speed Gust Speed Precip Events Conditions
12:55 AM 12.9 °F 10.9 °F 92% 30.38 in 10.0 mi Calm Calm - N/A   Clear
1:55 AM 12.0 °F 10.0 °F 92% 30.37 in 9.0 mi Calm Calm - N/A   Clear
2:55 AM 12.0 °F 9.0 °F 88% 30.37 in 10.0 mi Calm Calm - N/A   Clear
3:55 AM 10.9 °F 9.0 °F 92% 30.37 in 10.0 mi Calm Calm - N/A   Clear
4:55 AM 10.9 °F 8.1 °F 88% 30.37 in 10.0 mi Calm Calm - N/A   Clear
5:55 AM 10.4 °F 6.8 °F 85% 30.25 in 10.0 mi Calm Calm - N/A   Clear
6:55 AM 12.0 °F 8.1 °F 84% 30.40 in 10.0 mi Calm Calm - N/A   Mostly Cloudy
7:55 AM 12.0 °F 9.0 °F 88% 30.40 in 10.0 mi Calm Calm - N/A   Clear
8:55 AM 14.0 °F 10.0 °F 84% 30.39 in 10.0 mi Calm Calm - N/A   Clear
9:55 AM 16.0 °F 12.9 °F 88% 30.40 in 10.0 mi Calm Calm - N/A   Clear
10:55 AM 24.1 °F 19.9 °F 84% 30.40 in 10.0 mi Calm Calm - N/A   Clear
11:55 AM 27.0 °F 21.9 °F 81% 30.37 in 10.0 mi Calm Calm - N/A   Clear
12:55 PM 28.9 °F 23.0 °F 78% 30.35 in 10.0 mi Calm Calm - N/A   Clear
1:55 PM 30.9 °F 23.0 °F 72% 30.31 in 10.0 mi Calm Calm - N/A   Clear
2:55 PM 32.0 °F 23.0 °F 69% 30.32 in 10.0 mi Calm Calm - N/A   Clear
3:55 PM 33.1 °F 23.0 °F 66% 30.31 in 10.0 mi Calm Calm - N/A   Clear
4:55 PM 28.0 °F 21.9 °F 78% 30.32 in 10.0 mi Calm Calm - N/A   Clear
5:55 PM 21.2 °F 19.4 °F 93% 30.19 in 10.0 mi Calm Calm - N/A   Clear
6:55 PM 21.0 °F 19.0 °F 92% 30.34 in 10.0 mi Calm Calm - N/A   Clear
7:55 PM 18.0 °F 16.0 °F 92% 30.35 in 10.0 mi Calm Calm - N/A   Clear
8:55 PM 16.0 °F 14.0 °F 92% 30.37 in 10.0 mi Calm Calm - N/A   Clear
9:55 PM 18.0 °F 15.1 °F 88% 30.36 in 10.0 mi Calm Calm - N/A   Clear
10:55 PM 15.1 °F 12.0 °F 88% 30.35 in 10.0 mi Calm Calm - N/A   Clear
11:55 PM 14.0 °F 10.9 °F 88% 30.36 in 10.0 mi Calm Calm - N/A   Clear